{"data":{"norad_id":62618,"epoch":"2026-05-25T04:38:16.913184Z","epoch_age_seconds":48519,"freshness":"FRESH","line1":"1 62618U 25009K   26145.19325131  .00086148  00000+0  11947-2 0  9992","line2":"2 62618  97.3959 234.1108 0001519  64.4136 295.7276 15.56765226 75865","mean_motion":15.56765226,"eccentricity":0.0001519,"inclination_deg":97.3959,"raan_deg":234.1108,"arg_perigee_deg":64.4136,"mean_anomaly_deg":295.7276,"bstar":0.0011947,"rev_number":7586,"period_min":92.499496773831,"perigee_km":395.99703724327,"apogee_km":398.05533181873,"semimajor_km":6775.163184531,"source":"CELESTRAK","updated_at":"2026-05-25T13:38:03.128437Z"}}